This demonstration page uses our WeatherBlox Daily Observations layout. Learn more.

Left ArrowRight Arrow

34.16533, -84.80231

Hourly Observations for October 6, 2020

Temp ( °F °C ) Dew Point ( °F °C ) Humidity (%) Winds ( mph kmh ) Pressure ( in mb ) Visibility ( mi km ) Precip ( " mm )
12:53 am 00:53 Clear 54 12.2 52 11.1 93 93 Calm 30.13 1020 9 14 0.00 0.00
1:53 am 01:53 Clear 54 12.2 51 10.6 90 90 Calm 30.13 1020 10 16 0.00 0.00
2:53 am 02:53 Clear 53 11.7 51 10.6 93 93 Calm 30.13 1020 8 13 0.00 0.00
3:51 am 03:51 Partly Cloudy 54 12 52 11 94 94 Calm 30.15 1021 7 11 0.00 0.00
3:53 am 03:53 Partly Cloudy 53 11.7 51 10.6 93 93 Calm 30.12 1020 7 11 0.00 0.00
4:09 am 04:09 Mostly Cloudy 53 11.7 51 10.6 93 93 Calm 30.15 1021 7 11 0.00 0.00
4:28 am 04:28 Partly Cloudy with Mist and Fog 52 11.1 50 10 93 93 SE 3 6 30.16 1021 5 8 0.00 0.00
4:53 am 04:53 Clear 53 11.7 50 10 89 89 Calm 30.12 1020 10 16 0.00 0.00
5:53 am 05:53 Clear with Mist and Fog 52 11.1 50 10 93 93 SE 3 6 30.12 1020 3 5 0.00 0.00
6:53 am 06:53 Clear 56 13.3 53 11.7 90 90 Calm 30.13 1020 9 14 0.00 0.00
7:53 am 07:53 Sunny with Mist and Fog 52 11.1 51 10.6 97 97 ESE 3 6 30.15 1021 6 10 0.00 0.00
8:53 am 08:53 Sunny 59 15 56 13.3 90 90 Calm 30.16 1021 10 16 0.00 0.00
9:53 am 09:53 Sunny 63 17.2 57 13.9 81 81 E 3 6 30.17 1022 10 16 0.00 0.00
10:53 am 10:53 Sunny 68 20 57 13.9 68 68 VRB 5 7 30.16 1021 10 16 0.00 0.00
11:53 am 11:53 Sunny 72 22.2 56 13.3 57 57 ESE 7 11 30.14 1021 10 16 0.00 0.00
12:53 pm 12:53 Sunny 75 23.9 54 12.2 48 48 SE 5 7 30.13 1020 10 16 0.00 0.00
1:53 pm 13:53 Sunny 78 25.6 51 10.6 39 39 VRB 6 9 30.10 1019 10 16 0.00 0.00
2:53 pm 14:53 Sunny 79 26.1 53 11.7 41 41 VRB 3 6 30.08 1019 10 16 0.00 0.00
3:53 pm 15:53 Sunny 78 25.6 51 10.6 39 39 Calm 30.06 1018 10 16 0.00 0.00
4:53 pm 16:53 Sunny 80 26.7 52 11.1 38 38 VRB 3 6 30.05 1018 10 16 0.00 0.00
5:53 pm 17:53 Sunny 79 26.1 52 11.1 39 39 Calm 30.05 1018 10 16 0.00 0.00
6:53 pm 18:53 Sunny 68 20 60 15.6 76 76 Calm 30.06 1018 10 16 0.00 0.00
7:53 pm 19:53 Clear 63 17.2 58 14.4 84 84 Calm 30.06 1018 10 16 0.00 0.00
8:53 pm 20:53 Clear 61 16.1 57 13.9 87 87 Calm 30.08 1019 10 16 0.00 0.00
9:53 pm 21:53 Clear 59 15 56 13.3 90 90 Calm 30.08 1019 10 16 0.00 0.00
10:53 pm 22:53 Clear 58 14.4 55 12.8 90 90 Calm 30.08 1019 10 16 0.00 0.00
11:53 pm 23:53 Clear 58 14.4 55 12.8 90 90 Calm 30.09 1019 10 16 0.00 0.00

Powered by AerisWeather